Location: Izdebno
(52.6670°N, 16.2170°E)
Time: 14:57:33
(UTC+01:00)

Vanguard 2 - Pass Details

Date: 06 February 2023
Orbit: 553 x 2927 km, 32.9° (Epoch: 24 March)

Event Time Altitude Azimuth Distance (km) Brightness Sun altitude
Rises 20:35:49 0° 216° (SW) 5,009 11.9 -34.2°
Reaches altitude 10° 20:39:28 10° 204° (SSW) 4,363 11.4 -34.7°
Enters shadow 20:45:09 23° 177° (S) 3,834 10.8 -35.5°
Maximum altitude 20:49:15 27° 153° (SSE) 3,894 - -36.0°
Drops below altitude 10° 21:01:45 10° 106° (ESE) 5,673 - -37.7°
Sets 21:07:24 0° 96° (E) 6,780 - -38.5°
